Kosmos-2433

operational
NORAD ID: 32277 Int'l Des: 2007-052 Owner: KVR/IACG Country: RU Constellation: GLONASS
MEOCIRCULAR

About Kosmos-2433

Description loading...

Live Position

Loading 3D Globe...

Upcoming Passes

Altitude History

Altitude vs Time

uPlot chart will show altitude changes over time

Two-Line Element Set

1 32277U 07052C 25301.14581892 -.00000017 00000-0 00000-0 0 9993
2 32277 65.7182 323.6659 0015577 181.6947 185.4364 2.13209132140275
Epoch: Oct 28, 2025 • Age: 88 hours

Current Status

Altitude 19161.9 km
Velocity 3.95 km/s
Sub-Earth Point -43.09°S, 38.91°W
Launch Date Oct 26, 2007
Age 18 years
Type other

Technical Details

Classification Payload
Mass 1450.00 kg
Dry Mass 1200.00 kg
Total Mass 1450.00 kg
Length 4.00 m
Diameter 1.50 m
Span 7.80 m
Shape Cyl + Ant + 2 Pan
Manufacturer RESH
Bus Type Uragan
Phase Status In Orbit
Owner/State KVR/IACG/RU

Large Constellations

Loading constellations...